Location: Fazenda Monte Alegre
(4.8500°S, 38.0333°W)
Time: 17:10:37
(UTC+00:00)

Cosmos 1766 - Pass Details

Date: 24 September 2020
Orbit: 522 x 544 km, 82.5° (Epoch: 24 October)

Event Time Altitude Azimuth Distance (km) Brightness Sun altitude
Rises 21:25:10 0° 176° (S) 2,655 6.8 -15.2°
Reaches altitude 10° 21:27:21 10° 171° (S) 1,766 5.8 -15.7°
Maximum altitude 21:31:07 51° 94° (E) 662 3.3 -16.7°
Drops below altitude 10° 21:34:53 10° 17° (NNE) 1,764 5.7 -17.6°
Sets 21:37:04 0° 12° (NNE) 2,652 6.7 -18.1°
